View from above orbital plane
|
View from above satellite
|
Ground track
|
The orbit data is extracted from the following two-line orbital elements,
1 15889U 85058A 13142.83799794 .00003174 00000-0 20000-3 0 8522
2 15889 082.5239 020.8269 0022827 151.8332 334.4435 15.08598058517281
| Epoch (UTC): | 22 May 2013 20:06:43 |
| Eccentricity: | 0.0022827 |
| inclination: | 82.5239° |
| perigee height: | 524 km |
| apogee height: | 556 km |
| right ascension of ascending node: | 20.8269° |
| argument of perigee: | 151.8332° |
| revolutions per day: | 15.08598058 |
| mean anomaly at epoch: | 334.4435° |
| orbit number at epoch: | 51728 |
The dashed part of the orbit path shows where the satellite is in the earth's shadow,
|
|